Home   Weather   Port Elizabeth   Past weeks

Flag for South Africa Past Weather in Port Elizabeth, South Africa — Yesterday and Last 2 Weeks

Now
61 °F

Sunny.


Feels Like: 61 °F
Forecast: 59 / 71 °F
Wind: 8 mph from West

Location: Port Elizabeth Airport

Current Time: Sep 1, 2016 at 7:51:16 AM

Latest Report: Sep 1, 2016 at 7:00 AM


Visibility: 10 mi

Pressure: 30.09 "Hg

Humidity: 77%

Dew Point: 54 °F

Location of Port ElizabethLocation

Past Weather in Port Elizabeth — Graph

°F

Port Elizabeth Temperature Yesterday

Maximum temperature yesterday: 102 °F (at 3:00 PM)
Minimum temperature yesterday: 54 °F (at 4:00 AM)
Average temperature yesterday: 73 °F

High & Low Weather Summary for the Past Weeks

 TemperatureHumidityPressure
High102 °F (Aug 31, 3:00 PM)100% (Aug 21, 4:00 AM)30.45 "Hg (Aug 21, 4:00 AM)
Low41 °F (Aug 23, 7:00 AM)10% (Aug 31, 1:00 PM)29.71 "Hg (Aug 31, 4:00 PM)
Average62 °F74%30.10 "Hg
* Reported Aug 17 6:00 AM — Sep 1 6:00 AM, Port Elizabeth, Weather by CustomWeather, © 2016

Note: Actual official high and low records may vary slightly from our data, if they occured in-between our weather recording intervals... More about our weather records

Advertising

Port Elizabeth Weather History for the Previous 24 Hours

Scroll right to see more
 ConditionsComfort  
Time TempWeatherWind HumidityBarometerVisibility
6:00 AM
Thu, Sep 1
61 °FSunny.12 mph77%30.07 "Hg10 mi
5:00 AM61 °FClear.15 mph77%30.04 "Hg10 mi
4:00 AM61 °FClear.16 mph77%30.04 "Hg10 mi
3:00 AM61 °FClear.16 mph77%30.01 "Hg10 mi
2:00 AM61 °FClear.17 mph77%30.01 "Hg10 mi
1:00 AM61 °FClear.17 mph77%30.01 "Hg10 mi
12:00 AM63 °FClear.21 mph73%30.01 "Hg10 mi
11:00 PM
Wed, Aug 31
63 °FClear.21 mph77%29.98 "Hg10 mi
10:00 PM63 °FClear.22 mph83%29.95 "Hg10 mi
9:00 PM63 °FPassing clouds.25 mph83%29.95 "HgN/A
8:00 PM63 °FPassing clouds.25 mph88%29.89 "HgN/A
7:00 PM63 °FPassing clouds.28 mph83%29.86 "HgN/A
6:01 PM63 °FPassing clouds.29 mph88%29.83 "Hg4 mi
5:00 PM63 °FPassing clouds.29 mph83%29.80 "Hg6 mi
4:00 PM100 °FSunny.10 mph11%29.71 "Hg10 mi
3:00 PM102 °FPassing clouds.14 mph11%29.74 "HgN/A
2:00 PM100 °FPassing clouds.16 mph11%29.77 "HgN/A
1:00 PM100 °FPassing clouds.18 mph10%29.80 "HgN/A
12:01 PM99 °FPassing clouds.15 mph11%29.83 "HgN/A
11:00 AM84 °FSunny.9 mph35%29.86 "Hg10 mi
10:55 AM86 °FSunny.10 mph33%29.86 "Hg10 mi
10:00 AM77 °FSunny.6 mph42%29.86 "Hg10 mi
9:46 AM79 °FSunny.7 mph42%29.86 "Hg10 mi
9:00 AM72 °FSunny.2 mph65%29.89 "Hg10 mi
8:00 AM66 °FPassing clouds.6 mph60%29.89 "HgN/A
7:00 AM66 °FPassing clouds.5 mph37%29.86 "HgN/A
Weather by CustomWeather, © 2016

See weather overviewHow to use our weather pages